Location: Collierville
(35.0420°N, 89.6645°W)
Time: 14:54:55
(UTC+00:00)

Daily predictions for brighter satellites

Satellite Brightness Start Highest point End
(mag) Time Altitude Azimuth Time Altitude Azimuth Time Altitude Azimuth
Lacrosse 4 Rocket 4.1 12:05:01 10° NNE 12:07:20 15° NE 12:09:40 10° E
Cosmos 1315 Rocket 2.8 12:05:26 10° S 12:09:07 78° E 12:12:51 10° N
Cosmos 2233 Rocket 4.5 12:04:24 10° S 12:10:28 67° E 12:16:36 10° NNE
Hubble Space Telescope 2.4 12:10:51 10° SW 12:13:58 25° S 12:17:06 10° ESE
Cosmos 2360 Rocket 2.3 12:08:51 10° SW 12:14:18 53° WNW 12:19:48 10° N
Cosmos 2278 4.4 12:10:07 10° WSW 12:15:03 31° WNW 12:20:01 10° N
USA 229 DEB 3.6 12:09:58 10° SSW 12:15:42 79° ESE 12:22:03 10° NNE
USA 229 3.6 12:10:03 10° SSW 12:15:46 77° ESE 12:22:07 10° NE
DELTA 2 R/B (1) 3.8 12:11:41 10° W 12:17:11 62° NNW 12:22:43 10° ENE
ATLAS 3B R/B 3.3 12:10:20 10° SSW 12:17:40 73° ESE 12:25:29 10° NE
Cosmos 1356 Rocket 3.4 12:14:38 10° S 12:18:27 81° E 12:22:18 10° N
Cosmos 2333 4.3 12:14:52 10° SSW 12:20:29 60° WNW 12:26:06 10° NNE
Cosmos 1802 Rocket 4.1 12:16:54 10° SSW 12:22:57 57° W 12:29:09 10° N
